Regional Weather Roundup
Issued by NWS

Home | Current Version | Previous Version | Text Only | Print | Product List | Glossary On
Versions: 1 2 3 4 5 6 7 8 9 10 11 12 13 14 15 16 17 18 19 20 21 22 23 24 25 26 27 28 29 30 31 32 33 34 35 36 37 38 39 40 41 42 43 44 45 46 47 48 49 50
000
ASUS43 KMKX 280600
RWRWI

WISCONSIN REGIONAL WEATHER ROUNDUP
NATIONAL WEATHER SERVICE MILWAUKEE/SULLIVAN WI
100 AM CDT THU AUG 28 2014

NOTE: "FAIR" INDICATES FEW OR NO CLOUDS BELOW 12,000 FEET WITH NO
SIGNIFICANT WEATHER AND/OR OBSTRUCTIONS TO VISIBILITY.

WIZ001-002-006>008-014>016-023>028-280700-
NORTHWEST WISCONSIN

CITY           SKY/WX    TMP DP  RH WIND       PRES   REMARKS
SUPERIOR ARPT  FAIR      53  53  99 S6        30.15R
ASHLAND        FAIR      49  47  93 CALM      30.17R
6HR MIN TEMP:  48; 6HR MAX TEMP:  65;

HAYWARD        FAIR      50  49  96 CALM      30.17S
6HR MIN TEMP:  50; 6HR MAX TEMP:  70;

SIREN          FAIR      52  50  93 CALM      30.16S
RICE LAKE      FAIR      53  52  95 CALM      30.18S
6HR MIN TEMP:  53; 6HR MAX TEMP:  69;

LADYSMITH      FAIR      55  51  88 E5        30.20R
EAU CLAIRE     NOT AVBL
MENOMONIE      FAIR      59  56  89 CALM      30.16S
NEW RICHMOND   MOCLDY    58  56  92 E3        30.16S
OSCEOLA        CLOUDY    60  59  97 CALM      30.18S
$$

WIZ003>005-009-010-017-018-280700-
NORTH CENTRAL WISCONSIN

CITY           SKY/WX    TMP DP  RH WIND       PRES   REMARKS
WOODRUFF       FAIR      51  49  91 CALM      30.19S
RHINELANDER    FAIR      47  45  93 CALM      30.20S
6HR MIN TEMP:  47; 6HR MAX TEMP:  65;

EAGLE RIVER    FOG       43  43 100 CALM      30.19R VSB 1/4
LAND O LAKES   FAIR      42  42  99 CALM      30.20S FOG
PHILLIPS       FAIR      49  48  96 CALM      30.18S
TOMAHAWK       FAIR      45  44  96 CALM      30.20R
MEDFORD        FAIR      50  49  95 NE3       30.18S
MERRILL        FAIR      49  49 100 CALM      30.19R
$$

WIZ029-030-035-036-043>047-280700-
CENTRAL WISCONSIN

CITY           SKY/WX    TMP DP  RH WIND       PRES   REMARKS
WAUSAU         FAIR      57  48  72 N3        30.17R
6HR MIN TEMP:  57; 6HR MAX TEMP:  71;

MOSINEE        FAIR      55  52  88 N7        30.18R
MARSHFIELD     FAIR      59  51  75 NE6       30.17R
6HR MIN TEMP:  57; 6HR MAX TEMP:  71;

STEVENS POINT  FAIR      52  51  95 CALM      30.17S
WAUPACA        FAIR      60  59  94 CALM      30.16S
WAUTOMA        NOT AVBL
WISC RAPIDS    FAIR      57  54  89 CALM      30.17S
6HR MIN TEMP:  56; 6HR MAX TEMP:  72;

CAMP DOUGLAS   MOCLDY    54  54 100 NW3       30.16R FOG
$$

WIZ011>013-019>022-031-037>040-048>050-280700-
NORTHEAST WISCONSIN

CITY           SKY/WX    TMP DP  RH WIND       PRES   REMARKS
ANTIGO         FAIR      50  48  92 NE5       30.19S
STURGEON BAY   MOCLDY    57  54  88 E5        30.18S
6HR MIN TEMP:  57; 6HR MAX TEMP:  64;

GREEN BAY      FAIR      55  54  96 CALM      30.16R
6HR MIN TEMP:  55; 6HR MAX TEMP:  69;

MANITOWOC      NOT AVBL
APPLETON       MOCLDY    61  55  82 S5        30.16S
CLINTONVILLE   CLOUDY    59  57  94 CALM      30.16R
OSHKOSH        FAIR      58  56  93 S3        30.16R
6HR MIN TEMP:  58; 6HR MAX TEMP:  71;

$$

WIZ032>034-041-042-053>061-280700-
SOUTHWEST WISCONSIN

CITY           SKY/WX    TMP DP  RH WIND       PRES   REMARKS
LA CROSSE      FAIR      62  60  93 SE6       30.15R
6HR MIN TEMP:  62; 6HR MAX TEMP:  76;

SPARTA         CLOUDY    56  55  97 CALM      30.16S
VIROQUA        FAIR      59  59 100 CALM      30.17R
BOSCOBEL       CLOUDY    60  58  92 CALM      30.15F
6HR MIN TEMP:  59; 6HR MAX TEMP:  74;

PRAIRIE DU CHI FAIR      61  59  92 CALM      30.14S
PLATTEVILLE    CLOUDY    65  61  87 CALM      30.16S
$$

WIZ056-057-062-063-064-067-068-280700-
SOUTH CENTRAL WISCONSIN

CITY           SKY/WX    TMP DP  RH WIND       PRES   REMARKS
BARABOO/DELLS  FAIR      60  58  93 CALM      30.15S
LONE ROCK      MOCLDY    63  59  87 CALM      30.16R
WATERTOWN      FAIR      59  59 100 CALM      30.16R
MADISON        FAIR      64  61  90 SE6       30.16R
6HR MIN TEMP:  61; 6HR MAX TEMP:  71;

MIDDLETON      FAIR      59  59  99 CALM      30.17R
MONROE         CLOUDY    63  61  94 E5        30.15S
JANESVILLE     MOCLDY    63  61  94 CALM      30.15R
$$

WIZ051-052-058>065-066-070>072-280700-
SOUTHEAST WISCONSIN

CITY           SKY/WX    TMP DP  RH WIND       PRES   REMARKS
MILWAUKEE      FAIR      63  56  78 E3        30.16S
6HR MIN TEMP:  63; 6HR MAX TEMP:  66;

WAUKESHA       FAIR      55  54  94 CALM      30.18R
MILWAUKEE/TIMM FAIR      59  54  82 CALM      30.17S
RACINE         FAIR      62  56  80 NE5       30.17R
6HR MIN TEMP:  62; 6HR MAX TEMP:  68;

BURLINGTON     FAIR      57  56  99 CALM      30.16R
KENOSHA        FAIR      60  57  89 N5        30.15S
6HR MIN TEMP:  59; 6HR MAX TEMP:  68;

FOND DU LAC    FAIR      59  55  87 S3        30.16S
6HR MIN TEMP:  59; 6HR MAX TEMP:  71;

SHEBOYGAN      FAIR      54  53  97 CALM      30.16S FOG
6HR MIN TEMP:  54; 6HR MAX TEMP:  65;

WEST BEND      MOCLDY    55  54  94 CALM      30.17S
JUNEAU         CLOUDY    60  58  93 SE6       30.18R
$$

LSZ147-162-280700-
LAKE SUPERIOR

STATION/POSITION TIME  TEMP    WIND        PRES    WAVE
                       AIR SEA DIR/SP/G            HT/PER
                 (UTC) (F)     (DEG/KT/KT) (MB)    (FT/S)
W MID LAKE BUOY  0450   58 56  150/  6/  6 1020.9F   1
DEVILS ISLAND    0500   60     150/  8/  9 1020.9R
PORT WING        0540   58     130/  3/  4 1021.0R
SAXON HARBOR     0500   54     190/  5/  7 1021.0
$$

LMZ867-665-643>646-280700-
LAKE MICHIGAN

STATION/POSITION TIME  TEMP    WIND        PRES    WAVE
                       AIR SEA DIR/SP/G            HT/PER
                 (UTC) (F)     (DEG/KT/KT) (MB)    (FT/S)
N MID LAKE BUOY  0450   63 65   70/  8/ 10 1021.6R   1/ 3
NORTHPORT PIER   0500   64      70/  8/ 10 1021.7R
SISTER BAY       0511   59        CALM       N/A
KEWAUNEE LAKESHO 0500   64     110/  7/ 10 1020.4R
SHEBOYGAN LAKESH 0500   66 69  150/  6/  7 1021.3S
ATWATER BUOY     0500   68     100/  8/ 12 1022.1R
MILWAUKEE LAKESH 0500   67      90/  9/ 10   N/A
S MID LAKE BUOY  0450   68 69   50/ 10/ 12 1020.6R   1/ 4
KENOSHA   LAKESH 0500   69      80/  9/ 11 1020.3S
$$

TC  - TEMPERATURE IN CELSIUS
VSB - VISIBILITY IN STATUTE MILES
WCI - WIND CHILL INDEX
HX  - HEAT INDEX



USA.gov is the U.S. government's official web portal to all federal, state and local government web resources and services.